This is the latest recevied weather packets stored in our database for station/object KA9CBS. If no packets are shown the sender has not sent any weather packets the latest 10 day(s).
| Time | Temp. | Humidity | Pressure | Rain* | Wind** | Luminosity | Snow |
|---|---|---|---|---|---|---|---|
| 1787789961 | 27.78° C | 85% | 1014.9 hPa | 0 mm | - | 10 W/m² | - |
| 1787789660 | 27.78° C | 84% | 1014.9 hPa | 0 mm | - | 12 W/m² | - |
| 1787789354 | 28.33° C | 82% | 1014.7 hPa | 0 mm | - | 12 W/m² | - |
| 1787789049 | 28.33° C | 80% | 1014.7 hPa | 0 mm | - | 15 W/m² | - |
| 1787788746 | 28.89° C | 79% | 1014.7 hPa | 0 mm | - | 17 W/m² | - |
| 1787788441 | 28.89° C | 79% | 1014.7 hPa | 0 mm | - | 20 W/m² | - |
| 1787788136 | 29.44° C | 78% | 1014.9 hPa | 0 mm | - | 22 W/m² | - |
| 1787787831 | 29.44° C | 75% | 1014.7 hPa | 0 mm | - | 27 W/m² | - |
| 1787787530 | 30° C | 73% | 1014.7 hPa | 0 mm | - | 36 W/m² | - |
| 1787787224 | 30.56° C | 69% | 1014.5 hPa | 0 mm | - | 39 W/m² | - |
| 1787786923 | 30.56° C | 67% | 1014.9 hPa | 0 mm | - | 37 W/m² | - |
| 1787786620 | 30.56° C | 69% | 1014.6 hPa | 0 mm | - | 52 W/m² | - |
| 1787786314 | 30.56° C | 67% | 1014.4 hPa | 0 mm | - | 38 W/m² | - |
| 1787786011 | 30.56° C | 67% | 1014.3 hPa | 0 mm | - | 39 W/m² | - |
| 1787785710 | 31.11° C | 66% | 1014.5 hPa | 0 mm | - | 46 W/m² | - |
| 1787785405 | 31.11° C | 67% | 1014.6 hPa | 0 mm | - | 50 W/m² | - |
| 1787785104 | 31.11° C | 70% | 1014.3 hPa | 0 mm | - | 52 W/m² | - |
| 1787784800 | 31.67° C | 67% | 1014.6 hPa | 0 mm | - | 55 W/m² | - |
| 1787784499 | 31.67° C | 67% | 1014.7 hPa | 0 mm | - | 58 W/m² | - |
| 1787784193 | 31.67° C | 67% | 1014.8 hPa | 0 mm | - | 62 W/m² | - |
| 1787783889 | 31.11° C | 64% | 1014.7 hPa | 0 mm | - | 59 W/m² | - |
| 1787783585 | 31.67° C | 68% | 1014.7 hPa | 0 mm | - | 62 W/m² | - |
| 1787783279 | 31.67° C | 67% | 1014.6 hPa | 0 mm | - | 64 W/m² | - |
| 1787782975 | 31.67° C | 66% | 1014.5 hPa | 0 mm | - | 72 W/m² | - |
| 1787782674 | 31.67° C | 65% | 1014.6 hPa | 0 mm | - | 69 W/m² | - |
* Rain latest hour (hover to see other rain measurements)
** Current wind speed in m/s (hover to see current wind gust speed)